Location: Gellin
(53.4498°N, 14.3207°E)
Time: 01:56:57
(UTC+00:00)

Meteor 1-18 Rocket - Pass Details

Date: 03 March 2021
Orbit: 836 x 909 km, 81.2° (Epoch: 11 April)

Event Time Altitude Azimuth Distance (km) Brightness Sun altitude
Rises 17:45:54 0° 345° (NNW) 3,551 7.7 -9.9°
Reaches altitude 10° 17:48:23 10° 345° (NNW) 2,608 7.0 -10.3°
Maximum altitude 17:54:21 84° 260° (W) 921 4.5 -11.2°
Drops below altitude 10° 18:00:16 10° 172° (S) 2,579 6.6 -12.0°
Sets 18:02:42 0° 171° (S) 3,510 7.3 -12.4°
